Simultaneous Nadir Overpasses (SNOs) Predictions

Prediction of SNOs between GOES-15 and TERRA Satellite Orbit:

Table of predicted SNOs for the next 14.0 days since TLE Epoch: 3/4/2017
Index Date Time (GOES-15) GOES-15 Lat,Lon TERRA Lat,Lon Distance(km) Time Diff (sec)
1 03/05/2017 07:24:39 -0.03,-135.04 0.33,-133.32 195.34 80
2 03/05/2017 19:43:14 0.03,-135.02 0.74,-138.48 393.05 80
3 03/07/2017 19:31:02 0.02,-134.95 0.17,-135.51 64.35 80
4 03/09/2017 19:21:32 0.03,-134.88 -0.47,-132.56 264.34 80
5 03/10/2017 07:40:15 -0.02,-134.86 -0.65,-137.75 327.94 80
6 03/12/2017 07:28:03 -0.03,-134.79 -0.05,-134.78 2.98 80
7 03/14/2017 07:18:32 -0.03,-134.72 0.61,-131.83 328.99 80
8 03/14/2017 19:37:07 0.03,-134.70 0.51,-136.98 259.43 80
9 03/16/2017 19:27:35 0.03,-134.62 -0.10,-134.01 68.28 80




NCC Satellite Simultaneous Nadir Overpasses (SNOs) Prediction Service
